TDRS 13

Last updated on Tue Sep 22 2026 00:03:06 GMT+0000 (Coordinated Universal Time)

1 42915U 17047A 26264.41557701 -.00000100 00000+0 00000+0 0 9990 2 42915 3.4864 5.0132 0013521 122.7468 10.7584 1.00272116 33316
UTC large
Height (km)
Speed (km/s)
/
Latitude / Longitude
Inclination (degrees)
Orbital Period (minutes)
Azimuth
Elevation
Range (km)
Doppler Factor

Next 0 passes for location: London (51.5072 / 0.1276)

No passes found over London.
TDRS 13